Volver al catálogo

CZ-6A DEB

ActivoSSO
NORAD 54343·DEBRIS·🇨🇳 China

Lanzado Nov 11, 2022 desde Taiyuan Satellite Launch Center

Loading…

Próximos Pases (próximas 24 horas)

TLE

ActualizadoSource: Space-Track

Época: Sep 14, 2026, 05:58 UTC

1 54343U 22151CN  26257.24873940  .00000037  00000-0  44416-4 0  9992
2 54343  98.8422 256.9638 0042852  86.0325 274.5743 14.10740432197081

Sigue CZ-6A DEB en tiempo real con AllMySat

Download on the App Store